Weather History for Fremont, NE

Change the Weather History Date:

Monday, February 4, 2013

  Actual Average Record
Temperature  
Mean Temperature 30 °F -  
Max Temperature 39 °F 32 °F 62 °F (2005)
Min Temperature 22 °F 13 °F -14 °F (1989)
Degree Days  
Heating Degree Days 34    
Moisture  
Dew Point 24 °F    
Average Humidity 88    
Maximum Humidity 96    
Minimum Humidity 73    
Precipitation  
Precipitation 0.00 in - - ()
Sea Level Pressure  
Sea Level Pressure 29.93 in    
Wind  
Wind Speed 8 mph (WNW)    
Max Wind Speed 16 mph    
Max Gust Speed 24 mph    
Visibility 10 miles    
Events      
Averages and records for this station are not official NWS values.
T = Trace of Precipitation, MM = Missing Value Source: NWS Daily Summary

Daily Weather History Graph

Daily Weather History Graph

Search for Another Location

Airport:

Trip Planner

Search our weather history database for the weather conditions in past years. The results will help you decide how hot, cold, wet, or windy it might be!

Date:

Astronomy

Feb. 04, 2013 Rise Set
Actual Time 7:34 AM CST 5:46 PM CST
Civil Twilight 7:05 AM CST 6:15 PM CST
Nautical Twilight 6:32 AM CST 6:48 PM CST
Astronomical Twilight 5:59 AM CST 7:20 PM CST
Moon 2:12 AM CST (2/4) 12:09 PM CST (2/4)
Length of Visible Light 11h 10m
Length of Day
10h 12m
Last Quarter, 37% of the Moon is Illuminated
Feb 4
Last Quarter
Feb 10
New
Feb 17
First Quarter
Feb 25
Full
Mar 4
Last Quarter

Hourly Weather History & Observations

Time (CST) Temp. Windchill Dew Point Humidity Pressure Visibility Wind Dir Wind Speed Gust Speed Precip Events Conditions
12:15 AM 39.9 °F 35.1 °F 31.8 °F 73% 29.76 in 10.0 mi WSW 6.9 mph - N/A   Clear
12:35 AM 39.4 °F 33.2 °F 31.8 °F 74% 29.76 in 10.0 mi WSW 9.2 mph - N/A   Clear
12:55 AM 39.9 °F 35.1 °F 31.8 °F 73% 29.76 in 10.0 mi West 6.9 mph - N/A   Clear
1:15 AM 36.0 °F 32.1 °F 31.6 °F 84% 29.77 in 10.0 mi West 4.6 mph - N/A   Clear
1:35 AM 37.4 °F 32.1 °F 31.8 °F 80% 29.77 in 10.0 mi West 6.9 mph - N/A   Clear
1:55 AM 36.7 °F 30.5 °F 32.0 °F 83% 29.78 in 10.0 mi WNW 8.1 mph - N/A   Scattered Clouds
2:15 AM 36.7 °F 28.4 °F 32.0 °F 83% 29.78 in 10.0 mi West 12.7 mph - N/A   Scattered Clouds
2:35 AM 35.2 °F 27.1 °F 31.6 °F 87% 29.79 in 10.0 mi WNW 11.5 mph - N/A   Clear
2:55 AM 33.6 °F 26.2 °F 31.1 °F 90% 29.80 in 10.0 mi WNW 9.2 mph - N/A   Clear
3:15 AM 34.9 °F 26.2 °F 30.7 °F 85% 29.83 in 10.0 mi NNW 12.7 mph 18.4 mph N/A   Clear
4:55 AM 25.9 °F 14.8 °F 24.4 °F 94% 29.89 in 10.0 mi NNW 12.7 mph 20.7 mph N/A   Scattered Clouds
5:15 AM 25.2 °F 14.4 °F 23.4 °F 93% 29.91 in 10.0 mi North 11.5 mph 19.6 mph N/A   Mostly Cloudy
5:35 AM 24.1 °F 12.0 °F 22.6 °F 94% 29.93 in 10.0 mi North 13.8 mph 19.6 mph N/A   Overcast
5:55 AM 23.4 °F 10.6 °F 22.1 °F 95% 29.94 in 10.0 mi NNW 15.0 mph 24.2 mph N/A   Overcast
6:15 AM 22.8 °F 9.4 °F 21.4 °F 94% 29.96 in 10.0 mi North 16.1 mph 24.2 mph N/A   Overcast
6:55 AM 23.2 °F 10.8 °F 22.1 °F 96% 29.96 in 10.0 mi North 13.8 mph 21.9 mph N/A   Overcast
7:15 AM 23.5 °F 13.0 °F 22.1 °F 94% 29.97 in 10.0 mi North 10.4 mph 18.4 mph N/A   Overcast
7:35 AM 23.7 °F 15.6 °F 22.8 °F 96% 29.97 in 10.0 mi North 6.9 mph 19.6 mph N/A   Overcast
7:55 AM 23.7 °F 14.7 °F 22.8 °F 96% 29.97 in 10.0 mi North 8.1 mph - N/A   Overcast
8:15 AM 23.9 °F 13.5 °F 22.6 °F 95% 29.98 in 10.0 mi North 10.4 mph 16.1 mph N/A   Overcast
8:35 AM 23.7 °F 13.3 °F 21.9 °F 93% 29.99 in 10.0 mi North 10.4 mph - N/A   Overcast
8:55 AM 23.7 °F 13.3 °F 22.1 °F 94% 29.99 in 10.0 mi North 10.4 mph - N/A   Overcast
9:15 AM 23.7 °F 13.3 °F 22.1 °F 94% 30.00 in 10.0 mi NNW 10.4 mph - N/A   Overcast
9:35 AM 23.7 °F 13.3 °F 22.1 °F 94% 30.01 in 10.0 mi NNW 10.4 mph - N/A   Overcast
9:55 AM 23.9 °F 12.9 °F 22.1 °F 93% 30.02 in 10.0 mi NNW 11.5 mph - N/A   Overcast
10:15 AM 24.3 °F 13.9 °F 22.5 °F 93% 30.02 in 7.0 mi NNW 10.4 mph - N/A   Overcast
10:35 AM 24.4 °F 14.2 °F 22.1 °F 91% 30.02 in 10.0 mi NNW 10.4 mph - N/A   Overcast
10:55 AM 24.1 °F 14.4 °F 22.1 °F 92% 30.02 in 10.0 mi NNW 9.2 mph - N/A   Overcast
11:15 AM 24.4 °F 17.5 °F 21.6 °F 89% 30.03 in 10.0 mi North 5.8 mph - N/A   Overcast
11:35 AM 24.4 °F 17.5 °F 21.2 °F 87% 30.04 in 7.0 mi NNW 5.8 mph - N/A   Overcast
11:55 AM 24.8 °F 16.9 °F 21.2 °F 86% 30.03 in 7.0 mi NNW 6.9 mph - N/A   Overcast
12:15 PM 24.8 °F - 20.7 °F 84% 30.02 in 10.0 mi Calm Calm - N/A   Overcast
12:35 PM 25.3 °F 19.7 °F 21.2 °F 84% 30.01 in 10.0 mi North 4.6 mph - N/A   Overcast
12:55 PM 25.7 °F 20.1 °F 21.0 °F 82% 30.00 in 10.0 mi North 4.6 mph - N/A   Overcast
1:15 PM 25.5 °F - 20.8 °F 82% 30.00 in 10.0 mi Calm Calm - N/A   Overcast
1:35 PM 26.1 °F 18.4 °F 21.2 °F 82% 30.01 in 10.0 mi NW 6.9 mph - N/A   Overcast
1:55 PM 25.9 °F 20.3 °F 21.2 °F 82% 30.00 in 10.0 mi NNW 4.6 mph - N/A   Overcast
2:15 PM 26.2 °F 20.7 °F 21.4 °F 82% 29.99 in 10.0 mi WNW 4.6 mph - N/A   Overcast
2:35 PM 26.2 °F - 21.0 °F 81% 29.99 in 10.0 mi Calm Calm - N/A   Overcast
2:55 PM 27.1 °F - 21.6 °F 80% 29.98 in 10.0 mi Calm Calm - N/A   Overcast
3:15 PM 26.8 °F - 21.4 °F 80% 29.98 in 10.0 mi Calm Calm - N/A   Overcast
3:35 PM 26.6 °F - 21.2 °F 80% 29.98 in 10.0 mi Calm Calm - N/A   Overcast
3:55 PM 26.6 °F - 21.6 °F 81% 29.97 in 10.0 mi Calm Calm - N/A   Overcast
4:15 PM 26.4 °F - 21.9 °F 83% 29.96 in 10.0 mi Calm Calm - N/A   Overcast
4:35 PM 26.6 °F - 21.9 °F 82% 29.95 in 10.0 mi Calm Calm - N/A   Overcast
4:55 PM 26.4 °F 22.4 °F 21.7 °F 82% 29.94 in 10.0 mi SE 3.5 mph - N/A   Overcast
5:15 PM 26.4 °F - 21.9 °F 83% 29.94 in 10.0 mi Calm Calm - N/A   Overcast
5:35 PM 26.4 °F 20.9 °F 22.1 °F 84% 29.94 in 10.0 mi South 4.6 mph - N/A   Overcast
6:15 PM 25.7 °F - 22.3 °F 87% 29.93 in 10.0 mi Calm Calm - N/A   Overcast
6:35 PM 25.7 °F 19.0 °F 22.5 °F 88% 29.94 in 10.0 mi South 5.8 mph - N/A   Overcast
6:55 PM 25.7 °F 20.1 °F 22.8 °F 89% 29.94 in 10.0 mi SSW 4.6 mph - N/A   Overcast
7:15 PM 25.7 °F 19.0 °F 22.8 °F 89% 29.94 in 10.0 mi South 5.8 mph - N/A   Overcast
7:35 PM 25.7 °F 18.0 °F 23.0 °F 89% 29.94 in 10.0 mi South 6.9 mph - N/A   Overcast
7:55 PM 25.7 °F 18.0 °F 23.0 °F 89% 29.93 in 10.0 mi South 6.9 mph - N/A   Mostly Cloudy
8:15 PM 26.2 °F 17.8 °F 23.5 °F 90% 29.92 in 10.0 mi SSE 8.1 mph - N/A   Overcast
8:35 PM 26.2 °F 17.8 °F 23.7 °F 90% 29.91 in 10.0 mi SSE 8.1 mph - N/A   Scattered Clouds
8:55 PM 26.2 °F 17.1 °F 23.9 °F 91% 29.89 in 10.0 mi SSE 9.2 mph - N/A   Scattered Clouds
9:15 PM 26.2 °F 17.1 °F 23.9 °F 91% 29.89 in 10.0 mi SSE 9.2 mph - N/A   Overcast
9:35 PM 26.4 °F 18.0 °F 24.1 °F 91% 29.90 in 10.0 mi South 8.1 mph - N/A   Overcast
9:55 PM 26.6 °F 19.1 °F 24.6 °F 92% 29.90 in 10.0 mi South 6.9 mph - N/A   Overcast
10:15 PM 27.3 °F 18.4 °F 25.2 °F 92% 29.89 in 10.0 mi South 9.2 mph - N/A   Overcast
10:35 PM 27.3 °F 19.1 °F 25.2 °F 92% 29.88 in 10.0 mi South 8.1 mph - N/A   Overcast
10:55 PM 27.1 °F 19.7 °F 25.3 °F 93% 29.88 in 10.0 mi South 6.9 mph - N/A   Overcast
11:15 PM 27.1 °F 18.9 °F 25.5 °F 94% 29.87 in 7.0 mi South 8.1 mph - N/A   Overcast
11:35 PM 27.3 °F 20.9 °F 25.7 °F 94% 29.87 in 7.0 mi South 5.8 mph - N/A   Overcast
11:55 PM 27.5 °F 21.1 °F 26.1 °F 94% 29.87 in 7.0 mi South 5.8 mph - N/A   Overcast